SCP
0 0 0 0 0 0 0 0 0 0 0 0 0 0 0 0 -0 -0 0 -0 0 -0 -0 0 0 0 0 0 0 0 0 0 0 0 0 0 0 0 0 0 0 0 0 0
0 0 0 0 0 0 0 0 0 0 0 0 0 0 -0 0 -0 0 0 -0 -0 -0 -0 -0 -0 -0 -0 -0 -0 -0 -0 0 0 0 0 0 0 0 0 0 0 0 0 0
0 0 0 0 0 0 0 0 0 0 0 0 0 0 -0 -0 0 0 0 0 0 -0 -0 -0 -0 -0 -0 -0 -0 0 0 0 0 0 0 0 0 0 0 0 0 0 0 0
0 0 0 0 0 0 0 0 0 0 0 0 0 0 0 0 -0 0 0 0 0 -0 -0 0 -0 -0 -0 0 0 0 0 0 0 0 0 0 0 0 0 0 0 0 0 0
0 0 0 0 0 0 0 0 0 -0 -0 -0 -0 -0 0 0 0 0 0 0 0 0 0 -0 0 0 0 0 0 0 0 0 0 0 0 0 0 0 0 0 0 0 0 0
0 0 0 0 0 0 0 0 0 -0 -0 -0 -0 -0 0 0 0 -0 0 0 0 0 0 0 0 0 0 0 0 0 0 0 0 0 0 0 0 0 0 0 0 0 0 0
0 0 0 0 0 0 0 0 0 -0 -0 -0 0 -0 -0 0 0 0 0 0 0 -0 -0 0 0 0 0 0 0 0 0 0 0 0 0 0 0 0 0 0 0 0 0 0
0 0 0 0 0 0 0 0 -0 -0 -0 -0 -0 -0 -0 -0 -0 -0 -0 0 0 -0 0 0 0 0 0 0 0 0 0 0 0 0 0 0 0 0 0 0 0 0 0 0
0 0 0 0 0 0 0 0 0 -0 -0 -0 -0 -0 -0 -0 -0 -0 -0 0 0 0 0 0 0 0 0 0 0 0 0 0 0 0 0 0 0 0 0 0 0 0 0 0
0 0 0 0 0 0 0 0 0 0 -0 -0 -0 -0 -0 -0 -0 -0 0 0 0 0 0 0 0 0 0 0 0 0 0 0 0 0 0 0 0 0 0 0 0 0 0 0
0 0 0 0 0 0 0 0 -0 0 -0 -0 -0 -0 -0 -0 -0 -0 0 0 0 0 0 0 0 0 0 0 0 0 0 0 0 0 0 0 0 0 0 0 0 0 0 0
0 0 0 0 0 0 0 0 -0 -0 -0 0 0 -0 -0 0 0 0 0 0 0 0 0 0 0 0 0 0 0 0 0 0 0 0 0 0 0 0 0 0 0 0 0 0
0 0 0 0 0 0 -0 0 0 -0 0 0 0 0 0 0 0 0 0 0 0 0 0 0 0 0 0 0 0 0 0 0 0 0 0 0 0 -0 0 0 0 0 -0 0
0 0 0 0 0 0 0 0 0 0 0 0 0 0 0 0 0 0 0 0 0 0 0 0 0 0 0 0 0 0 0 0 0 0 0 0 0 -0 0 -0 -0 0 0 0
0 0 0 0 0 0 0 0 0 0 0 0 0 0 0 0 0 0 0 0 0 0 0 0 0 0 0 0 0 0 0 0 -0 0 0 0 0 0 0 0 0 0 0 0
0 0 0 0 0 0 0 0 0 0 0 0 0 0 0 0 0 0 0 0 0 0 0 0 0 0 0 0 0 0 0 0 -0 0 0 0 0 0 0 0 0 0 0 0
0 0 0 0 0 0 0 0 0 0 0 0 0 0 0 0 0 0 0 0 0 0 0 0 0 0 0 0 0 0 0 0 0 0 0 0 0 0 0 0 0 0 0 0
0 0 0 0 0 0 0 0 0 0 0 0 0 0 0 0 0 0 0 0 0 0 0 0 0 0 0 0 0 0 0 0 0 0 0 0 0 0 0 0 0 0 0 0
0 0 0 0 0 0 0 0 0 0 0 0 0 0 0 0 0 0 0 0 0 0 0 0 0 0 0 0 0 0 0 0 0 0 0 0 0 0 0 0 0 0 0 0
0 0 0 0 0 0 0 0 0 0 0 0 0 0 0 0 0 0 0 0 0 0 0 0 0 0 0 0 0 0 0 0 0 0 0 0 0 0 0 -0 -0 -0 -0 -0
0 -0 -0 -0 -0 -0 0 0 0 0 0 0 0 0 0 0 0 0 0 0 0 0 0 0 0 0 0 0 0 0 0 0 0 0 0 0 0 0 0 0 0 -0 -0 0
0 -0 -0 -0 -0 -0 0 0 0 0 0 0 0 0 0 0 0 0 0 0 0 0 0 0 0 0 0 0 0 0 0 0 0 0 0 0 0 0 0 0 0 0 0 0
-0 -0 -0 -0 0 0 0 0 0 0 0 0 0 0 0 0 0 0 0 0 0 0 0 0 0 0 0 0 0 0 0 0 0 0 0 0 0 0 0 0 0 0 0 0
-0 -0 -0 -0 -0 -0 0 0 0 0 0 0 0 0 0 0 0 0 0 0 0 0 0 0 0 0 0 0 0 0 0 0 0 0 0 0 0 0 0 0 0 0 0 0
-0 -0 -0 -0 -0 -0 0 0 0 0 0 0 0 0 0 0 0 0 0 0 0 0 0 0 0 0 0 0 0 0 0 0 0 0 0 0 0 0 0 0 0 0 0 0
-0 -0 -0 -0 -0 -0 0 0 0 0 0 0 0 0 0 0 0 0 0 0 0 0 0 0 0 0 0 0 0 0 0 0 0 0 0 0 0 0 0 0 0 -0 -0 -0
-0 -0 -0 -0 -0 -0 -0 -0 -0 0 0 0 0 0 0 0 0 0 0 0 0 0 0 0 0 0 0 0 0 0 0 0 0 0 0 0 0 0 -0 -0 -0 -0 -0 -0
Wind_Speed_500mb
18 34 37 25 44 28 22 19 15 15 15 16 14 22 35 45 51 51 55 72 51 56 63 53 55 41 37 36 32 26 22 21 20 26 29 33 37 41 45 49 51 53 55 54
23 40 42 26 36 40 31 18 8 26 15 12 17 32 44 48 54 53 52 82 51 59 63 49 46 37 33 28 21 14 8 15 22 26 31 36 40 43 45 47 46 43 43 40
13 31 34 22 9 19 17 23 17 17 14 27 25 30 44 50 56 62 64 80 49 47 57 48 37 27 22 17 11 7 16 23 30 36 38 38 39 39 37 34 34 35 36 37
13 26 23 7 2 6 12 10 11 23 34 27 29 33 39 49 62 57 70 71 50 51 51 39 32 22 13 7 7 16 26 35 37 36 36 34 30 27 29 34 37 35 32 33
11 8 13 9 7 8 12 6 15 37 34 46 58 60 36 46 46 54 67 59 53 47 39 29 21 12 3 8 20 29 34 34 33 31 29 26 26 31 35 37 33 32 31 32
6 8 6 9 5 8 7 9 21 40 42 49 56 27 9 44 62 69 68 59 56 44 31 23 12 3 11 25 33 35 35 35 33 29 24 22 26 30 30 26 30 34 31 28
7 8 4 2 12 10 10 8 45 48 53 55 22 31 82 62 60 62 58 46 41 36 23 13 5 17 24 27 28 26 26 23 19 16 17 22 28 24 22 31 32 32 30 29
4 6 6 25 9 3 6 29 48 55 48 42 58 59 66 66 64 57 50 41 31 22 12 12 17 21 25 25 26 26 22 21 20 19 20 25 24 21 28 30 34 36 41 42
5 5 13 16 10 13 11 37 41 50 46 65 67 57 63 62 58 51 42 32 21 14 13 17 20 23 24 25 23 19 18 17 17 19 23 23 21 25 24 29 36 40 44 50
6 16 19 26 24 18 28 37 42 57 58 63 69 58 59 60 54 43 32 22 14 11 14 20 24 26 26 24 19 14 15 16 19 20 22 17 20 22 22 31 35 40 46 54
14 16 28 37 33 35 49 50 55 53 54 59 71 56 52 51 44 33 23 14 11 15 20 23 25 26 24 18 12 11 13 16 18 20 25 16 20 18 19 26 38 41 45 52
6 14 32 26 32 38 54 55 52 62 62 53 61 56 46 39 30 22 14 11 14 18 21 24 24 22 18 11 7 8 11 13 17 21 23 21 17 9 13 21 27 33 35 40
21 47 51 45 46 50 66 68 67 65 60 57 47 37 28 23 17 10 10 13 18 22 24 23 22 17 11 5 6 10 12 13 20 22 23 20 19 22 24 24 31 31 32 30
37 38 43 41 41 56 58 56 49 43 40 37 32 25 18 11 8 8 14 20 24 26 23 20 16 12 6 1 5 8 11 15 21 24 23 21 19 22 27 29 37 32 25 29
46 50 53 46 43 44 38 33 37 35 28 22 15 9 6 6 10 16 22 26 28 25 19 15 11 8 3 1 4 5 10 17 21 23 26 20 16 19 22 27 32 34 29 30
44 42 39 40 37 33 29 26 26 23 16 10 5 3 8 13 18 24 28 27 22 17 12 11 7 4 3 2 3 3 10 19 19 19 23 20 17 20 24 28 31 35 37 38
42 27 26 27 25 22 19 15 12 9 7 6 8 11 15 19 24 27 23 17 13 9 7 4 0 2 4 4 2 2 7 15 14 16 20 19 19 21 25 26 31 33 35 33
30 28 22 18 15 11 8 5 2 3 8 12 15 18 21 23 23 17 10 7 3 2 3 2 3 5 6 5 4 2 6 8 12 14 20 21 20 21 23 25 27 30 34 36
24 22 18 14 10 5 2 4 6 9 12 14 16 18 19 17 10 4 2 0 0 2 4 5 5 7 9 8 6 5 6 11 13 15 17 19 19 20 23 25 28 29 30 32
20 17 13 11 9 7 5 4 6 8 12 13 15 14 8 3 5 5 6 4 7 3 4 7 9 10 10 9 10 9 13 16 17 19 19 21 23 26 28 28 29 31 34 33
19 18 17 16 15 13 10 8 8 9 11 7 3 4 7 8 9 10 8 7 9 9 10 12 12 13 13 15 16 17 20 22 22 24 26 27 28 30 32 33 35 37 37 40
20 20 20 19 17 15 13 11 10 9 7 9 9 12 15 12 10 11 11 11 12 10 13 16 16 17 20 21 23 26 27 28 30 30 30 30 32 34 35 36 38 39 41 44
23 22 19 17 16 14 11 11 10 11 13 11 11 12 14 15 13 14 16 13 12 14 18 20 20 22 25 27 31 32 34 34 34 34 36 36 38 39 41 42 43 43 43 47
22 21 17 18 16 11 10 12 13 14 13 13 15 15 15 13 15 15 15 15 17 19 24 26 25 26 29 34 35 36 39 39 38 39 39 39 40 40 40 40 40 42 44 46
21 17 11 7 9 9 12 14 15 14 13 13 14 14 12 9 13 15 17 23 28 31 34 33 32 34 36 37 36 37 39 38 39 39 39 39 39 39 39 40 40 42 43 44
18 22 26 18 13 11 13 12 13 13 13 14 14 14 15 14 19 23 32 36 36 35 36 36 37 35 35 36 36 36 37 37 36 37 38 38 39 39 39 38 38 39 40 41
11 21 22 28 20 15 13 14 14 14 16 18 20 18 18 23 32 34 31 32 35 38 39 39 36 34 33 33 33 34 34 35 35 35 35 34 34 34 34 33 33 34 35 36
Wind_Direction_500mb
145 138 163 146 174 176 165 156 190 177 164 158 152 147 132 125 127 124 122 111 113 119 119 124 124 122 112 101 85 73 46 28 9 359 343 331 325 320 316 313 313 311 310 308
140 147 158 145 167 184 191 177 106 140 146 153 151 141 139 138 136 131 127 119 124 125 126 125 122 118 105 102 90 70 38 5 353 337 324 320 318 315 314 315 315 315 316 319
129 151 146 161 159 190 172 190 156 169 164 163 153 156 150 146 144 138 128 126 127 130 129 131 126 129 121 104 80 17 355 339 329 328 326 323 323 323 323 323 324 323 323 324
132 157 162 38 237 173 158 137 175 125 144 152 141 127 138 149 140 135 128 132 140 139 135 135 134 132 108 72 337 338 338 333 331 332 329 331 335 339 340 339 333 335 341 346
127 107 123 127 98 123 170 145 186 143 133 128 123 101 60 122 130 131 130 135 148 141 137 133 130 111 76 332 340 336 326 328 333 335 343 350 351 348 347 352 1 3 1 8
100 87 115 118 143 348 223 159 183 149 141 139 141 129 105 128 139 134 144 148 142 142 138 149 139 145 353 349 339 334 342 347 349 352 353 352 350 347 354 1 6 12 20 12
73 98 88 56 316 306 202 120 159 147 143 152 148 141 137 142 136 139 143 143 140 133 133 127 53 8 349 334 332 342 351 359 6 5 359 356 357 1 13 20 18 17 9 358
91 104 136 5 304 310 54 141 147 148 148 126 129 129 133 144 143 141 141 137 130 126 105 50 16 353 340 346 356 2 14 17 10 4 0 1 7 28 25 24 20 12 6 6
347 36 0 8 327 316 146 145 143 139 134 137 134 133 135 137 138 139 137 133 121 92 42 12 357 352 354 358 1 16 21 15 10 5 1 6 21 30 35 25 15 12 8 1
174 19 39 48 61 81 132 130 133 138 135 139 133 137 134 135 137 139 136 124 96 53 21 9 2 357 358 1 9 18 16 18 12 6 10 22 27 31 31 17 8 5 0 359
97 116 82 54 73 95 101 111 115 118 128 130 131 130 131 133 138 136 125 103 61 25 13 4 356 355 357 1 16 18 13 14 14 11 17 34 23 33 35 11 355 357 359 352
87 87 106 84 88 103 106 108 114 121 119 122 127 127 132 130 127 119 100 56 18 1 354 350 344 348 351 360 10 8 16 13 9 10 13 20 26 34 3 356 7 6 356 347
92 95 100 97 95 104 104 110 112 114 118 121 120 124 125 122 110 78 37 6 345 339 338 329 330 340 346 352 10 14 7 11 12 10 10 13 14 11 7 18 36 17 355 0
95 103 78 95 94 100 99 104 107 107 109 111 118 122 120 104 63 10 345 331 324 323 320 319 325 325 313 356 18 11 16 16 19 15 16 13 12 9 14 15 24 24 17 24
86 87 92 99 104 105 110 116 116 114 112 112 115 110 74 12 334 322 316 314 312 311 311 308 311 302 286 182 25 23 31 24 17 14 15 15 21 19 33 28 27 25 50 43
104 106 106 102 104 105 107 104 108 113 126 138 162 259 288 294 301 306 308 306 307 310 303 303 294 264 206 159 65 23 30 14 14 19 23 35 38 45 43 42 36 32 38 36
115 103 107 103 106 107 105 112 125 150 182 220 252 273 290 299 306 308 305 302 299 305 309 302 336 180 169 124 131 35 8 0 17 33 34 43 47 48 52 49 48 45 43 40
109 112 112 105 100 93 95 108 145 264 278 284 289 293 295 299 300 297 297 299 313 315 353 51 83 143 131 137 132 59 19 27 55 60 57 56 59 58 59 61 62 59 57 55
87 85 80 74 70 56 354 312 298 292 291 292 290 289 292 296 287 270 219 150 125 64 25 48 111 138 138 145 126 89 83 79 84 83 74 69 74 75 73 72 70 64 60 55
79 69 58 44 30 18 352 328 309 303 300 296 294 295 284 205 157 119 85 81 77 81 103 114 125 135 135 123 106 100 100 93 93 94 87 85 83 81 76 72 71 66 61 58
58 47 39 35 29 18 14 3 351 334 330 335 0 97 103 100 105 110 101 92 88 94 110 116 125 123 120 112 110 109 104 99 99 95 93 90 86 81 76 70 66 62 59 57
46 37 31 27 24 15 13 21 33 42 54 74 89 105 98 100 96 110 101 96 95 103 119 120 116 113 111 110 111 108 106 103 100 97 92 89 86 82 78 76 70 64 62 59
44 33 29 31 29 25 33 47 54 79 90 74 89 107 118 118 108 114 112 101 109 118 120 112 109 111 112 114 109 107 104 103 101 97 94 91 87 84 80 75 72 68 63 59
44 29 31 34 35 46 61 63 83 96 76 78 93 108 120 121 115 108 106 110 122 122 116 110 107 110 113 108 105 104 102 100 97 95 91 89 86 81 78 74 70 66 61 58
57 47 63 40 32 78 101 96 99 93 78 97 104 110 105 97 113 115 113 118 116 116 111 111 110 109 106 105 103 101 99 97 97 94 91 88 84 81 77 73 68 65 61 57
67 59 56 52 50 92 105 112 114 99 99 114 114 112 105 92 110 116 115 110 111 113 113 111 110 108 106 104 102 99 96 94 91 87 85 82 78 75 71 68 64 61 58 55
95 72 69 63 66 96 118 132 128 115 115 116 112 110 102 107 113 114 114 113 110 107 105 104 104 103 101 101 99 97 95 90 86 83 80 76 73 69 64 60 57 55 52 47
Wind_Speed_850mb
18 34 37 25 44 28 22 19 15 15 15 16 14 22 35 45 51 51 55 72 51 56 63 53 55 41 37 36 32 26 22 21 20 26 29 33 37 41 45 49 51 53 55 54
23 40 42 26 36 40 31 18 8 26 15 12 17 32 44 48 54 53 52 82 51 59 63 49 46 37 33 28 21 14 8 15 22 26 31 36 40 43 45 47 46 43 43 40
13 31 34 22 9 19 17 23 17 17 14 27 25 30 44 50 56 62 64 80 49 47 57 48 37 27 22 17 11 7 16 23 30 36 38 38 39 39 37 34 34 35 36 37
13 26 23 7 2 6 12 10 11 23 34 27 29 33 39 49 62 57 70 71 50 51 51 39 32 22 13 7 7 16 26 35 37 36 36 34 30 27 29 34 37 35 32 33
11 8 13 9 7 8 12 6 15 37 34 46 58 60 36 46 46 54 67 59 53 47 39 29 21 12 3 8 20 29 34 34 33 31 29 26 26 31 35 37 33 32 31 32
6 8 6 9 5 8 7 9 21 40 42 49 56 27 9 44 62 69 68 59 56 44 31 23 12 3 11 25 33 35 35 35 33 29 24 22 26 30 30 26 30 34 31 28
7 8 4 2 12 10 10 8 45 48 53 55 22 31 82 62 60 62 58 46 41 36 23 13 5 17 24 27 28 26 26 23 19 16 17 22 28 24 22 31 32 32 30 29
4 6 6 25 9 3 6 29 48 55 48 42 58 59 66 66 64 57 50 41 31 22 12 12 17 21 25 25 26 26 22 21 20 19 20 25 24 21 28 30 34 36 41 42
5 5 13 16 10 13 11 37 41 50 46 65 67 57 63 62 58 51 42 32 21 14 13 17 20 23 24 25 23 19 18 17 17 19 23 23 21 25 24 29 36 40 44 50
6 16 19 26 24 18 28 37 42 57 58 63 69 58 59 60 54 43 32 22 14 11 14 20 24 26 26 24 19 14 15 16 19 20 22 17 20 22 22 31 35 40 46 54
14 16 28 37 33 35 49 50 55 53 54 59 71 56 52 51 44 33 23 14 11 15 20 23 25 26 24 18 12 11 13 16 18 20 25 16 20 18 19 26 38 41 45 52
6 14 32 26 32 38 54 55 52 62 62 53 61 56 46 39 30 22 14 11 14 18 21 24 24 22 18 11 7 8 11 13 17 21 23 21 17 9 13 21 27 33 35 40
21 47 51 45 46 50 66 68 67 65 60 57 47 37 28 23 17 10 10 13 18 22 24 23 22 17 11 5 6 10 12 13 20 22 23 20 19 22 24 24 31 31 32 30
37 38 43 41 41 56 58 56 49 43 40 37 32 25 18 11 8 8 14 20 24 26 23 20 16 12 6 1 5 8 11 15 21 24 23 21 19 22 27 29 37 32 25 29
46 50 53 46 43 44 38 33 37 35 28 22 15 9 6 6 10 16 22 26 28 25 19 15 11 8 3 1 4 5 10 17 21 23 26 20 16 19 22 27 32 34 29 30
44 42 39 40 37 33 29 26 26 23 16 10 5 3 8 13 18 24 28 27 22 17 12 11 7 4 3 2 3 3 10 19 19 19 23 20 17 20 24 28 31 35 37 38
42 27 26 27 25 22 19 15 12 9 7 6 8 11 15 19 24 27 23 17 13 9 7 4 0 2 4 4 2 2 7 15 14 16 20 19 19 21 25 26 31 33 35 33
30 28 22 18 15 11 8 5 2 3 8 12 15 18 21 23 23 17 10 7 3 2 3 2 3 5 6 5 4 2 6 8 12 14 20 21 20 21 23 25 27 30 34 36
24 22 18 14 10 5 2 4 6 9 12 14 16 18 19 17 10 4 2 0 0 2 4 5 5 7 9 8 6 5 6 11 13 15 17 19 19 20 23 25 28 29 30 32
20 17 13 11 9 7 5 4 6 8 12 13 15 14 8 3 5 5 6 4 7 3 4 7 9 10 10 9 10 9 13 16 17 19 19 21 23 26 28 28 29 31 34 33
19 18 17 16 15 13 10 8 8 9 11 7 3 4 7 8 9 10 8 7 9 9 10 12 12 13 13 15 16 17 20 22 22 24 26 27 28 30 32 33 35 37 37 40
20 20 20 19 17 15 13 11 10 9 7 9 9 12 15 12 10 11 11 11 12 10 13 16 16 17 20 21 23 26 27 28 30 30 30 30 32 34 35 36 38 39 41 44
23 22 19 17 16 14 11 11 10 11 13 11 11 12 14 15 13 14 16 13 12 14 18 20 20 22 25 27 31 32 34 34 34 34 36 36 38 39 41 42 43 43 43 47
22 21 17 18 16 11 10 12 13 14 13 13 15 15 15 13 15 15 15 15 17 19 24 26 25 26 29 34 35 36 39 39 38 39 39 39 40 40 40 40 40 42 44 46
21 17 11 7 9 9 12 14 15 14 13 13 14 14 12 9 13 15 17 23 28 31 34 33 32 34 36 37 36 37 39 38 39 39 39 39 39 39 39 40 40 42 43 44
18 22 26 18 13 11 13 12 13 13 13 14 14 14 15 14 19 23 32 36 36 35 36 36 37 35 35 36 36 36 37 37 36 37 38 38 39 39 39 38 38 39 40 41
11 21 22 28 20 15 13 14 14 14 16 18 20 18 18 23 32 34 31 32 35 38 39 39 36 34 33 33 33 34 34 35 35 35 35 34 34 34 34 33 33 34 35 36
Wind_Direction_850mb
145 138 163 146 174 176 165 156 190 177 164 158 152 147 132 125 127 124 122 111 113 119 119 124 124 122 112 101 85 73 46 28 9 359 343 331 325 320 316 313 313 311 310 308
140 147 158 145 167 184 191 177 106 140 146 153 151 141 139 138 136 131 127 119 124 125 126 125 122 118 105 102 90 70 38 5 353 337 324 320 318 315 314 315 315 315 316 319
129 151 146 161 159 190 172 190 156 169 164 163 153 156 150 146 144 138 128 126 127 130 129 131 126 129 121 104 80 17 355 339 329 328 326 323 323 323 323 323 324 323 323 324
132 157 162 38 237 173 158 137 175 125 144 152 141 127 138 149 140 135 128 132 140 139 135 135 134 132 108 72 337 338 338 333 331 332 329 331 335 339 340 339 333 335 341 346
127 107 123 127 98 123 170 145 186 143 133 128 123 101 60 122 130 131 130 135 148 141 137 133 130 111 76 332 340 336 326 328 333 335 343 350 351 348 347 352 1 3 1 8
100 87 115 118 143 348 223 159 183 149 141 139 141 129 105 128 139 134 144 148 142 142 138 149 139 145 353 349 339 334 342 347 349 352 353 352 350 347 354 1 6 12 20 12
73 98 88 56 316 306 202 120 159 147 143 152 148 141 137 142 136 139 143 143 140 133 133 127 53 8 349 334 332 342 351 359 6 5 359 356 357 1 13 20 18 17 9 358
91 104 136 5 304 310 54 141 147 148 148 126 129 129 133 144 143 141 141 137 130 126 105 50 16 353 340 346 356 2 14 17 10 4 0 1 7 28 25 24 20 12 6 6
347 36 0 8 327 316 146 145 143 139 134 137 134 133 135 137 138 139 137 133 121 92 42 12 357 352 354 358 1 16 21 15 10 5 1 6 21 30 35 25 15 12 8 1
174 19 39 48 61 81 132 130 133 138 135 139 133 137 134 135 137 139 136 124 96 53 21 9 2 357 358 1 9 18 16 18 12 6 10 22 27 31 31 17 8 5 0 359
97 116 82 54 73 95 101 111 115 118 128 130 131 130 131 133 138 136 125 103 61 25 13 4 356 355 357 1 16 18 13 14 14 11 17 34 23 33 35 11 355 357 359 352
87 87 106 84 88 103 106 108 114 121 119 122 127 127 132 130 127 119 100 56 18 1 354 350 344 348 351 360 10 8 16 13 9 10 13 20 26 34 3 356 7 6 356 347
92 95 100 97 95 104 104 110 112 114 118 121 120 124 125 122 110 78 37 6 345 339 338 329 330 340 346 352 10 14 7 11 12 10 10 13 14 11 7 18 36 17 355 0
95 103 78 95 94 100 99 104 107 107 109 111 118 122 120 104 63 10 345 331 324 323 320 319 325 325 313 356 18 11 16 16 19 15 16 13 12 9 14 15 24 24 17 24
86 87 92 99 104 105 110 116 116 114 112 112 115 110 74 12 334 322 316 314 312 311 311 308 311 302 286 182 25 23 31 24 17 14 15 15 21 19 33 28 27 25 50 43
104 106 106 102 104 105 107 104 108 113 126 138 162 259 288 294 301 306 308 306 307 310 303 303 294 264 206 159 65 23 30 14 14 19 23 35 38 45 43 42 36 32 38 36
115 103 107 103 106 107 105 112 125 150 182 220 252 273 290 299 306 308 305 302 299 305 309 302 336 180 169 124 131 35 8 0 17 33 34 43 47 48 52 49 48 45 43 40
109 112 112 105 100 93 95 108 145 264 278 284 289 293 295 299 300 297 297 299 313 315 353 51 83 143 131 137 132 59 19 27 55 60 57 56 59 58 59 61 62 59 57 55
87 85 80 74 70 56 354 312 298 292 291 292 290 289 292 296 287 270 219 150 125 64 25 48 111 138 138 145 126 89 83 79 84 83 74 69 74 75 73 72 70 64 60 55
79 69 58 44 30 18 352 328 309 303 300 296 294 295 284 205 157 119 85 81 77 81 103 114 125 135 135 123 106 100 100 93 93 94 87 85 83 81 76 72 71 66 61 58
58 47 39 35 29 18 14 3 351 334 330 335 0 97 103 100 105 110 101 92 88 94 110 116 125 123 120 112 110 109 104 99 99 95 93 90 86 81 76 70 66 62 59 57
46 37 31 27 24 15 13 21 33 42 54 74 89 105 98 100 96 110 101 96 95 103 119 120 116 113 111 110 111 108 106 103 100 97 92 89 86 82 78 76 70 64 62 59
44 33 29 31 29 25 33 47 54 79 90 74 89 107 118 118 108 114 112 101 109 118 120 112 109 111 112 114 109 107 104 103 101 97 94 91 87 84 80 75 72 68 63 59
44 29 31 34 35 46 61 63 83 96 76 78 93 108 120 121 115 108 106 110 122 122 116 110 107 110 113 108 105 104 102 100 97 95 91 89 86 81 78 74 70 66 61 58
57 47 63 40 32 78 101 96 99 93 78 97 104 110 105 97 113 115 113 118 116 116 111 111 110 109 106 105 103 101 99 97 97 94 91 88 84 81 77 73 68 65 61 57
67 59 56 52 50 92 105 112 114 99 99 114 114 112 105 92 110 116 115 110 111 113 113 111 110 108 106 104 102 99 96 94 91 87 85 82 78 75 71 68 64 61 58 55
95 72 69 63 66 96 118 132 128 115 115 116 112 110 102 107 113 114 114 113 110 107 105 104 104 103 101 101 99 97 95 90 86 83 80 76 73 69 64 60 57 55 52 47